カタログに戻る

STARLINK-31980

運用中通信VLEO
NORAD 59962·PAYLOAD·🇺🇸 United States

打ち上げ Jun 5, 2024 から Cape Canaveral Space Force Station

Loading…

次のパス (今後24時間)

TLE

最新Source: CelesTrak SupGP

元期: Sep 14, 2026, 22:37 UTC

1 59962C 24107T   26257.94284722  .00045505  00000+0  13445-2 0  2579
2 59962  53.1577 263.3701 0001298  93.6642 338.5975 15.34367216    12

AllMySatでSTARLINK-31980をリアルタイム追跡

Download on the App Store